Location: Home
(42.5358°N, 72.7383°W)
Time: 02:22:52
(UTC-05:00)

Vanguard 2 - Pass Details

Date: 06 December 2021
Orbit: 553 x 2936 km, 32.9° (Epoch: 19 January)

Event Time Altitude Azimuth Distance (km) Brightness Sun altitude
Rises 15:41:52 0° 259° (W) 3,212 12.1 4.7°
Reaches altitude 10° 15:44:11 10° 248° (WSW) 2,491 12.1 4.3°
Maximum altitude 15:49:21 31° 188° (S) 1,871 10.2 3.6°
Drops below altitude 10° 15:57:05 10° 131° (SE) 3,809 10.9 2.4°
Sets 16:01:34 0° 123° (ESE) 5,239 11.5 1.7°
